Regional Weather Roundup
Issued by NWS Little Rock, AR

Home | Current Version | Previous Version | Graphics & Text | Print | Product List | Glossary On
Versions: 1 2 3 4 5 6 7 8 9 10 11 12 13 14 15 16 17 18 19 20 21 22 23 24 25 26 27 28
000
ASUS44 KLZK 221405
RWRLZK

WEATHER ROUNDUP FOR ARKANSAS
NATIONAL WEATHER SERVICE LITTLE ROCK AR
900 AM CDT WED OCT 22 2014

NOTE: "FAIR" INDICATES FEW OR NO CLOUDS BELOW 12,000 FEET WITH NO
SIGNIFICANT WEATHER AND/OR OBSTRUCTIONS TO VISIBILITY.

ARZ001-003-010-029-221500-
NORTHWEST ARKANSAS

CITY           SKY/WX    TMP DP  RH WIND       PRES   REMARKS
FAYETTEVILLE   SUNNY     50  49  96 CALM      30.22R
FORT SMITH     SUNNY     58  52  80 E10       30.21R
HARRISON       SUNNY     50  48  93 SE7       30.25R
BENTONVILLE    SUNNY     55  48  76 E8        30.22R
ROGERS         MOSUNNY   55  49  80 E9        30.23R
SILOAM SPGS    PTSUNNY   55  48  76 E5        30.22R
HIGHFILL       SUNNY     56  51  84 NE3       30.22R
SPRINGDALE     SUNNY     54  48  82 E3        30.23R
$$

ARZ004-005-016-221500-
NORTH CENTRAL ARKANSAS

CITY           SKY/WX    TMP DP  RH WIND       PRES   REMARKS
BATESVILLE     SUNNY     52  46  82 NE3       30.27R
FLIPPIN        SUNNY     48  43  81 CALM      30.27R
MTN HOME       SUNNY     50  46  86 E7        30.26R
$$

ARZ040-041-221500-
WEST CENTRAL ARKANSAS

CITY           SKY/WX    TMP DP  RH WIND       PRES   REMARKS
MENA           CLOUDY    55  54  94 CALM      30.23R VSB 1/4
MOUNT IDA      FOG       52  51  97 CALM      30.20R VSB<1/4
$$

ARZ009-017-025-026-028-221500-
NORTHEAST ARKANSAS

CITY           SKY/WX    TMP DP  RH WIND       PRES   REMARKS
CORNING        FAIR      50  45  81 NE13      30.29R
JONESBORO      SUNNY     53  46  77 NE10      30.26R
NEWPORT        SUNNY     52  48  86 NE8       30.28R
WALNUT RIDGE   SUNNY     52  39  62 NE10      30.28R
BLYTHEVILLE    SUNNY     54  47  77 E3        30.27R
NW BLYTHEVILLE SUNNY     50  45  81 NE8       30.27R
$$

ARZ022-023-033-042-044-221500-
CENTRAL ARKANSAS

CITY           SKY/WX    TMP DP  RH WIND       PRES   REMARKS
LITTLE ROCK    SUNNY     57  49  74 E8        30.23R
N LITTLE ROCK  SUNNY     58  51  79 E10       30.23R
JACKSONVILLE   SUNNY     55  49  80 E9        30.23R
SEARCY         SUNNY     54  49  83 NE8       30.26R
HOT SPRINGS    SUNNY     54  51  90 CALM      30.22R
RUSSELLVILLE   SUNNY     58  50  75 CALM      30.24R
$$

ARZ036-221500-
EAST ARKANSAS

CITY           SKY/WX    TMP DP  RH WIND       PRES   REMARKS
WEST MEMPHIS   SUNNY     55  47  74 E7        30.23R
$$

ARZ050-053-066-070-073-221500-
SOUTHWEST ARKANSAS

CITY           SKY/WX    TMP DP  RH WIND       PRES   REMARKS
ARKADELPHIA    FAIR      57  53  86 NE7       30.22R
CAMDEN         SUNNY     54  52  94 N5        30.19R FOG
TEXARKANA      SUNNY     58  55  90 NE8       30.18R
EL DORADO      SUNNY     58  53  84 NE6       30.19R
DE QUEEN       MOSUNNY   62  56  80 CALM      30.19R
$$

ARZ056-057-069-221500-
SOUTHEAST ARKANSAS

CITY           SKY/WX    TMP DP  RH WIND       PRES   REMARKS
PINE BLUFF     SUNNY     55  49  80 NE7       30.22R
STUTTGART      SUNNY     55  48  76 NE9       30.24R
MONTICELLO     SUNNY     57  50  77 NE7       30.20R

$$





USA.gov is the U.S. government's official web portal to all federal, state and local government web resources and services.